NOAA 16 DEB, 41296

Orbit data source: Space-Track

NOAA 16 DEB, 41296 is space debris in SSO originally from a launch on Thu, 21 Sep 2000 UTC launched from the Air Force Western Test Range (AFWTR). Debris objects in space refer to the collection of defunct objects orbiting the Earth. Examples of debris include non-operational satellites, rocket bodies, and fragments generated from explosions, collisions, or faulty payload assembly.

Loading next visibility...
Identifier
41296, 2000-055GY
Orbit
SSO
Country
Flag of USUS
Related business
Manufacturer
Unknown
Mission
Spacecraft
Bus & Motor
Unknown
Mass
Unknown
Launch date (UTC)
2000-09-21 (26 years ago)
Launch vehicle
Unknown
Launch site
Air Force Western Test Range (AFWTR)
Object type
Payload
Rocket body
Debris
Shape & HBR
Unknown shape, 0.1 m
Radar Cross Section
Medium (>0.1 m² and <1 m²)

Expand to show TLE details & history
Last TLE update: 1 day ago

TLE from 1 day ago
0 NOAA 16 DEB
1 41296U 00055GY  26171.38097948  .00002021  00000-0  95432-3 0  9998
2 41296  98.7115 228.6814 0027795 153.9519 206.3063 14.20693665539402
Epoch: 2026-06-20T09:08Z
TLE epoch observation values (Epoch: 2026-06-20T09:08:36.627Z)
Latitude
-0.00003°
Longitude
-177.06763°
Altitude
843.88 km
Speed
7.422 km/s
True Right ascension
15h 14m 43s
True Declination
0° 00' 00"
Sunlit
Object was in full shadow at epoch
Visualization orbit readout
Latitude
Unknown
Longitude
Unknown
Altitude
Unknown
Speed
Unknown
Apparent Right ascension
Unknown
Apparent Declination
Unknown
Sunlit
N/A
Visualization observer readout
Local Sidereal Time
03:27:26
Azimuth
Unknown
Elevation
Unknown
Doppler factor
Unknown
Orbital elements
Apogee altitude
840.173 km
Perigee altitude
800.158 km
Semi-major axis
7,198.303 km
Eccentricity
0.00278
Inclination
98.7115°
RAAN
228.6814°
Arg. of periapsis
153.9519°
True anomaly
206.16559°
Mean anomaly
206.3063°
Eccentric anomaly
206.2359°
Mean motion
3.55384 °/min
Orbital period
101.3 mins
BSTAR
0.00095432
Loading maneuver chart data...
Computing Atmospheric mass density...
Loading historical data...
Loading historical data...
Loading historical data...
Loading historical data...
Loading historical data...
Loading historical data...
Loading historical data...

Documentation

Showing up to 5 results
|